Notices

What's New in latest Release from April 7th, 2021:

- Updated Glossary, including Speed of Maximum Gust, and Total Hourly Precipitation

- Updated national and regional climate services offices contacts and prices information

- Addition of station inventory lists for 1981-2010, 1971-2000, and 1961-1990 Normals.

If you haven't already, please take our survey and provide feedback about our website: https://eccc.sondage-survey.ca/f/LanguageSelection.aspx?s=442ca660-fcf1-47c0-95a9-59707d6fd709

Hourly Data Report for July 11, 2016

TORONTO CITY
ONTARIO

43°40'00.000" N
79°24'00.000" W
112.50 m
6158355
71508
XTO

Download Data

Hourly Data (July 2016)
Hourly Data Report for July 11, 2016
TIME
LST
Temp Definition
°C
Dew Point Definition
°C
Rel Hum Definition
%
Precip. Amount Definition
mm

Wind Dir Definition
10's deg

Wind Spd Definition
km/h
Visibility Definition
km
Stn Press Definition
kPa
Hmdx Definition


Wind Chill Definition


Weather Definition


00:00 20.2 12.0 59 0.0 LegendMM LegendMM   100.40     LegendNANA
01:00 19.6 12.8 65 0.0 LegendMM LegendMM   100.43     LegendNANA
02:00 20.2 11.9 59 0.0 LegendMM LegendMM   100.44     LegendNANA
03:00 20.7 13.0 62 0.0 LegendMM LegendMM   100.46     LegendNANA
04:00 19.5 14.8 74 0.0 LegendMM LegendMM   100.48     LegendNANA
05:00 19.2 16.2 83 0.0 LegendMM LegendMM   100.53     LegendNANA
06:00 19.6 16.2 81 0.0 LegendMM LegendMM   100.61     LegendNANA
07:00 20.5 16.0 75 0.0 LegendMM LegendMM   100.61 25   LegendNANA
08:00 21.5 17.5 78 0.0 LegendMM LegendMM   100.57 27   LegendNANA
09:00 21.9 17.1 74 0.0 LegendMM LegendMM   100.55 27   LegendNANA
10:00 23.1 16.8 68 0.0 LegendMM LegendMM   100.59 28   LegendNANA
11:00 24.6 15.4 57 0.0 LegendMM LegendMM   100.61 29   LegendNANA
12:00 26.3 13.5 45 0.0 LegendMM LegendMM   100.67 29   LegendNANA
13:00 24.0 13.3 51 0.0 LegendMM LegendMM   100.65 27   LegendNANA
14:00 23.5 13.6 54 0.0 LegendMM LegendMM   100.62 27   LegendNANA
15:00 25.8 11.1 40 0.0 LegendMM LegendMM   100.55 28   LegendNANA
16:00 24.7 11.7 44 0.0 LegendMM LegendMM   100.52 27   LegendNANA
17:00 23.6 10.8 45 0.0 LegendMM LegendMM   100.53 25   LegendNANA
18:00 23.1 9.4 42 0.0 LegendMM LegendMM   100.47     LegendNANA
19:00 22.4 10.0 45 0.0 LegendMM LegendMM   100.46     LegendNANA
20:00 21.6 10.1 48 0.0 LegendMM LegendMM   100.41     LegendNANA
21:00 21.2 11.7 55 0.0 LegendMM LegendMM   100.39     LegendNANA
22:00 21.0 12.4 58 0.0 LegendMM LegendMM   100.40     LegendNANA
23:00 20.8 14.0 65 0.0 LegendMM LegendMM   100.39     LegendNANA

Notes on Data Quality.

Legend

  • E = Estimated
  • M = Missing
  • NA = Not Available*
  • [empty] = Indicates an unobserved value
Date modified: